Battle Mountain, Nevada, United States (89820)
Lat: 40.64N, Lon: 116.93W
Wx Zone: NVZ036
Local Info
Past Weather Observations for Sunday, January 25, 2015

NOTE: This archive is for the closest National Weather Service station to Battle Mountain. Information may differ from the station used for current weather conditions.

Click here for Long-term Archive

Time Weather Temperature Dewpoint Humidity Pressure Winds Precip Visibility
23:56
Clear
41°F / 5°C 32°F / 0°C 70% 30.3 in
(1026 mb)
NE 15 mph
(NE 24 kph)
- 10SM
22:56
Clear
41°F / 5°C 32°F / 0°C 70% 30.33 in
(1027 mb)
NE 15 mph
(NE 24 kph)
- 10SM
21:56
Clear
34°F / 1°C 27°F / -3°C 75% 30.33 in
(1027 mb)
ESE 9.2 mph
(ESE 15 kph)
- 10SM
20:56
Clear
32°F / 0°C 27°F / -3°C 80% 30.33 in
(1027 mb)
E 5.8 mph
(E 9 kph)
- 10SM
19:56
Clear
36°F / 2°C 28°F / -2°C 75% 30.33 in
(1027 mb)
SSE 8.1 mph
(SSE 13 kph)
- 10SM
18:56
Clear
43°F / 6°C 30°F / -1°C 61% 30.33 in
(1027 mb)
ENE 10.4 mph
(ENE 17 kph)
- 10SM
17:56
Clear
50°F / 10°C 32°F / 0°C 50% 30.33 in
(1027 mb)
NE 9.2 mph
(NE 15 kph)
- 10SM
16:56
Clear
52°F / 11°C 32°F / 0°C 47% 30.3 in
(1026 mb)
NE 5.8 mph
(NE 9 kph)
- 10SM
15:56
Clear
57°F / 14°C 32°F / 0°C 39% 30.33 in
(1027 mb)
NE 8.1 mph
(NE 13 kph)
- 10SM
14:56
Clear
57°F / 14°C 32°F / 0°C 39% 30.33 in
(1027 mb)
NE 9.2 mph
(NE 15 kph)
- 10SM
13:56
Clear
55°F / 13°C 30°F / -1°C 38% 30.33 in
(1027 mb)
NE 11.5 mph
(NE 19 kph)
- 10SM
12:56
Clear
54°F / 12°C 30°F / -1°C 41% 30.36 in
(1028 mb)
NE 10.4 mph
(NE 17 kph)
- 10SM
11:56
Clear
52°F / 11°C 30°F / -1°C 44% 30.42 in
(1030 mb)
NE 9.2 mph
(NE 15 kph)
- 10SM
10:56
Clear
46°F / 8°C 30°F / -1°C 53% 30.45 in
(1031 mb)
N 5.8 mph
(N 9 kph)
- 10SM
09:57
Fair
43°F / 6°C 28°F / -2°C 57% 30.45 in
(1031 mb)
N 4.6 mph
(N 7 kph)
- 10SM
08:56
Clear
34°F / 1°C 27°F / -3°C 75% 30.45 in
(1031 mb)
Calm - 10SM
07:56
Clear
25°F / -4°C 19°F / -7°C 80% 30.42 in
(1030 mb)
Calm - 10SM
05:56
Clear
21°F / -6°C 18°F / -8°C 86% 30.42 in
(1030 mb)
ENE 4.6 mph
(ENE 7 kph)
- 10SM
04:56
Clear
21°F / -6°C 19°F / -7°C 93% 30.45 in
(1031 mb)
Calm - 10SM
03:56
Clear
21°F / -6°C 19°F / -7°C 93% 30.45 in
(1031 mb)
Calm - 10SM
02:56
Clear
21°F / -6°C 18°F / -8°C 86% 30.45 in
(1031 mb)
Calm - 10SM
01:56
Clear
23°F / -5°C 19°F / -7°C 86% 30.45 in
(1031 mb)
Calm - 10SM
Time Weather Temperature Dewpoint Humidity Pressure Winds Precip Visibility


Weather for websites

WeatherForYou.com, LLC is not responsible for any damages or problems caused by this service. Current weather conditions are obtained from the closest station including government and personal stations which may have varying degrees of accuracy. Weather forecasts are derived from the NOAA NDFD. Like all things, this site belongs to Jesus Christ... He just trusts me to maintain it. If you have any questions or comments email webmaster@weatherforyou.com

Copyright © 2015, WeatherForYou.com LLC. All rights reserved.